| time (UTC) | temp F | wind direction | speed MPH | gust MPH | rain 1hr in | rain 24hr in | rain mn in | humidity % | barometer mb |
| 20260505093757 | 58 | 21 | 2.0 | 2.0 | 0.12 | 0.06 | 0.06 | 85 | 1010.0 |
| 20260505093255 | 58 | 104 | 2.0 | 2.0 | 0.12 | 0.05 | 0.05 | 84 | 1009.5 |
| 20260505092751 | 59 | 94 | 1.0 | 1.0 | 0.05 | 0.04 | 0.04 | 82 | 1009.5 |
| 20260505092250 | 61 | 50 | 3.0 | 3.0 | 0.19 | 0.03 | 0.03 | 79 | 1009.4 |
| 20260505091747 | 62 | 106 | 1.0 | 1.0 | 0.19 | 0.03 | 0.03 | 72 | 1009.0 |
| 20260505091245 | 63 | 236 | 2.0 | 2.0 | 0.00 | 0.00 | 0.00 | 68 | 1009.2 |
| 20260505090742 | 64 | 47 | 3.0 | 3.0 | 0.00 | 0.00 | 0.00 | 62 | 1008.7 |
| 20260505090240 | 63 | 118 | 1.0 | 1.0 | 0.00 | 0.00 | 0.00 | 62 | 1008.5 |
| 20260505085737 | 63 | 104 | 1.0 | 1.0 | 0.00 | 0.00 | 0.00 | 62 | 1008.5 |
| 20260505085236 | 63 | 100 | 1.0 | 1.0 | 0.00 | 0.00 | 0.00 | 63 | 1008.2 |
| 20260505084732 | 63 | 105 | 0.0 | 1.0 | 0.00 | 0.00 | 0.00 | 64 | 1008.2 |
| 20260505084232 | 63 | 110 | 0.0 | 0.0 | 0.00 | 0.00 | 0.00 | 63 | 1008.1 |
| 20260505083728 | 63 | 110 | 0.0 | 0.0 | 0.00 | 0.00 | 0.00 | 63 | 1008.1 |
| 20260505083225 | 63 | 112 | 0.0 | 0.0 | 0.00 | 0.00 | 0.00 | 63 | 1008.1 |
| 20260505082721 | 63 | 93 | 0.0 | 0.0 | 0.00 | 0.00 | 0.00 | 63 | 1007.9 |
| 20260505082218 | 64 | 92 | 0.0 | 0.0 | 0.00 | 0.00 | 0.00 | 62 | 1007.9 |
| 20260505081713 | 63 | 106 | 0.0 | 0.0 | 0.00 | 0.00 | 0.00 | 62 | 1008.0 |
| 20260505081212 | 64 | 106 | 0.0 | 0.0 | 0.00 | 0.00 | 0.00 | 62 | 1007.8 |
| 20260505080708 | 64 | 105 | 0.0 | 1.0 | 0.00 | 0.00 | 0.00 | 61 | 1007.4 |
| 20260505080204 | 64 | 109 | 0.0 | 0.0 | 0.00 | 0.00 | 0.00 | 61 | 1007.7 |
| 20260505075700 | 64 | 102 | 1.0 | 1.0 | 0.00 | 0.00 | 0.00 | 60 | 1007.6 |
| 20260505075157 | 64 | 127 | 2.0 | 2.0 | 0.00 | 0.00 | 0.00 | 61 | 1007.5 |
| 20260505074654 | 65 | 94 | 1.0 | 2.0 | 0.00 | 0.00 | 0.00 | 60 | 1007.8 |
| 20260505074151 | 64 | 295 | 1.0 | 2.0 | 0.00 | 0.00 | 0.00 | 60 | 1007.8 |
| 20260505073649 | 65 | 279 | 1.0 | 1.0 | 0.00 | 0.00 | 0.00 | 60 | 1007.9 |
| 20260505073147 | 65 | 94 | 2.0 | 2.0 | 0.00 | 0.00 | 0.00 | 60 | 1007.5 |
| 20260505072642 | 65 | 75 | 2.0 | 2.0 | 0.00 | 0.00 | 0.00 | 59 | 1007.4 |
| 20260505072139 | 65 | 132 | 1.0 | 2.0 | 0.00 | 0.00 | 0.00 | 59 | 1007.2 |
| 20260505071634 | 65 | 83 | 2.0 | 2.0 | 0.00 | 0.00 | 0.00 | 59 | 1007.3 |
| 20260505071132 | 66 | 156 | 2.0 | 2.0 | 0.00 | 0.00 | 0.00 | 58 | 1007.0 |
| 20260505070629 | 66 | 75 | 2.0 | 2.0 | 0.00 | 0.00 | 0.00 | 57 | 1007.3 |
| 20260505070125 | 65 | 113 | 1.0 | 2.0 | 0.00 | 0.00 | 0.00 | 59 | 1007.2 |
| 20260505065622 | 66 | 144 | 2.0 | 2.0 | 0.00 | 0.00 | 0.00 | 59 | 1007.2 |
| 20260505065118 | 66 | 169 | 1.0 | 3.0 | 0.00 | 0.00 | 0.00 | 58 | 1007.3 |
| 20260505064615 | 66 | 62 | 1.0 | 2.0 | 0.00 | 0.00 | 0.00 | 58 | 1007.2 |
| 20260505064114 | 66 | 80 | 2.0 | 2.0 | 0.00 | 0.00 | 0.00 | 58 | 1007.0 |
| 20260505063611 | 66 | 322 | 4.0 | 6.0 | 0.00 | 0.00 | 0.00 | 57 | 1006.9 |
| 20260505063106 | 66 | 119 | 0.0 | 1.0 | 0.00 | 0.00 | 0.00 | 58 | 1007.3 |
| 20260505062603 | 66 | 150 | 2.0 | 2.0 | 0.00 | 0.00 | 0.00 | 57 | 1007.3 |
| 20260505062101 | 66 | 175 | 3.0 | 3.0 | 0.00 | 0.00 | 0.00 | 57 | 1007.3 |
| 20260505061558 | 66 | 126 | 1.0 | 1.0 | 0.00 | 0.00 | 0.00 | 57 | 1007.2 |
| 20260505061056 | 66 | 116 | 1.0 | 1.0 | 0.00 | 0.00 | 0.00 | 56 | 1007.0 |
| 20260505060553 | 66 | 231 | 2.0 | 2.0 | 0.00 | 0.00 | 0.00 | 57 | 1007.2 |
| 20260505060049 | 66 | 91 | 2.0 | 2.0 | 0.00 | 0.00 | 0.00 | 57 | 1007.0 |
| 20260505055544 | 66 | 227 | 4.0 | 6.0 | 0.00 | 0.00 | 0.00 | 57 | 1006.7 |
| 20260505055042 | 66 | 235 | 3.0 | 5.0 | 0.00 | 0.00 | 0.00 | 57 | 1006.7 |
| 20260505054539 | 66 | 106 | 0.0 | 1.0 | 0.00 | 0.00 | 0.00 | 57 | 1006.7 |
| 20260505054037 | 66 | 118 | 2.0 | 2.0 | 0.00 | 0.00 | 0.00 | 58 | 1006.5 |
| 20260505053534 | 66 | 100 | 1.0 | 2.0 | 0.00 | 0.00 | 0.00 | 57 | 1006.6 |
| 20260505053031 | 66 | 250 | 4.0 | 5.0 | 0.00 | 0.00 | 0.00 | 57 | 1006.5 |
| 20260505052528 | 66 | 264 | 7.0 | 9.0 | 0.00 | 0.00 | 0.00 | 56 | 1006.5 |
| 20260505052025 | 67 | 113 | 1.0 | 1.0 | 0.00 | 0.00 | 0.00 | 57 | 1006.3 |
| 20260505051522 | 67 | 89 | 1.0 | 2.0 | 0.00 | 0.00 | 0.00 | 56 | 1006.7 |
| 20260505051020 | 67 | 286 | 4.0 | 6.0 | 0.00 | 0.00 | 0.00 | 55 | 1006.7 |
| 20260505050518 | 67 | 240 | 4.0 | 5.0 | 0.00 | 0.00 | 0.00 | 55 | 1006.7 |
| 20260505041445 | 68 | 132 | 2.0 | 2.0 | 0.00 | 0.00 | 0.00 | 57 | 1007.3 |
| 20260505040943 | 68 | 146 | 1.0 | 2.0 | 0.00 | 0.00 | 0.00 | 56 | 1007.0 |
| 20260505040440 | 68 | 324 | 3.0 | 3.0 | 0.00 | 0.00 | 0.00 | 55 | 1007.2 |
| 20260505035937 | 68 | 130 | 1.0 | 2.0 | 0.00 | 0.00 | 0.00 | 56 | 1007.3 |
| 20260505035433 | 68 | 125 | 1.0 | 2.0 | 0.00 | 0.00 | 0.00 | 57 | 1007.6 |
| 20260505034930 | 68 | 106 | 1.0 | 1.0 | 0.00 | 0.00 | 0.00 | 57 | 1007.4 |
| 20260505034426 | 68 | 175 | 2.0 | 2.0 | 0.00 | 0.00 | 0.00 | 57 | 1007.5 |
| 20260505033924 | 67 | 142 | 2.0 | 2.0 | 0.00 | 0.00 | 0.00 | 57 | 1007.4 |
| 20260505033420 | 68 | 109 | 0.0 | 0.0 | 0.00 | 0.00 | 0.00 | 58 | 1007.5 |
| 20260505032919 | 67 | 139 | 2.0 | 2.0 | 0.00 | 0.00 | 0.00 | 58 | 1007.2 |
| 20260505032415 | 67 | 99 | 0.0 | 0.0 | 0.00 | 0.00 | 0.00 | 58 | 1007.3 |
| 20260505031912 | 67 | 106 | 0.0 | 0.0 | 0.00 | 0.00 | 0.00 | 59 | 1007.5 |
| 20260505031409 | 68 | 106 | 1.0 | 1.0 | 0.00 | 0.00 | 0.00 | 58 | 1007.3 |
| 20260505030906 | 68 | 134 | 2.0 | 3.0 | 0.00 | 0.00 | 0.00 | 57 | 1007.2 |
| 20260505030401 | 67 | 115 | 0.0 | 1.0 | 0.00 | 0.00 | 0.00 | 58 | 1007.0 |
| 20260505025857 | 67 | 109 | 0.0 | 0.0 | 0.00 | 0.00 | 0.00 | 59 | 1007.4 |
| 20260505025355 | 67 | 96 | 1.0 | 1.0 | 0.00 | 0.00 | 0.00 | 59 | 1007.3 |
| 20260505024854 | 68 | 82 | 3.0 | 5.0 | 0.00 | 0.00 | 0.00 | 58 | 1006.9 |
| 20260505024351 | 68 | 122 | 1.0 | 1.0 | 0.00 | 0.00 | 0.00 | 58 | 1006.9 |
| 20260505023848 | 68 | 102 | 0.0 | 1.0 | 0.00 | 0.00 | 0.00 | 58 | 1006.6 |
| 20260505023345 | 68 | 256 | 4.0 | 6.0 | 0.00 | 0.00 | 0.00 | 57 | 1006.7 |
| 20260505022842 | 68 | 102 | 1.0 | 1.0 | 0.00 | 0.00 | 0.00 | 58 | 1006.8 |
| 20260505022339 | 68 | 102 | 1.0 | 1.0 | 0.00 | 0.00 | 0.00 | 59 | 1006.6 |
| 20260505021836 | 68 | 94 | 1.0 | 1.0 | 0.00 | 0.00 | 0.00 | 59 | 1006.7 |
| 20260505021332 | 67 | 116 | 1.0 | 1.0 | 0.00 | 0.00 | 0.00 | 59 | 1006.8 |
| 20260505020828 | 67 | 111 | 0.0 | 0.0 | 0.00 | 0.00 | 0.00 | 59 | 1006.6 |
| 20260505020324 | 67 | 101 | 0.0 | 0.0 | 0.00 | 0.00 | 0.00 | 60 | 1006.6 |
| 20260505015821 | 68 | 102 | 0.0 | 0.0 | 0.00 | 0.00 | 0.00 | 59 | 1006.3 |
| 20260505015318 | 68 | 109 | 0.0 | 0.0 | 0.00 | 0.00 | 0.00 | 59 | 1006.2 |
| 20260505014815 | 68 | 121 | 1.0 | 2.0 | 0.00 | 0.00 | 0.00 | 59 | 1006.2 |
| 20260505014312 | 67 | 111 | 0.0 | 0.0 | 0.00 | 0.00 | 0.00 | 59 | 1006.0 |
| 20260505013809 | 68 | 117 | 0.0 | 0.0 | 0.00 | 0.00 | 0.00 | 59 | 1006.1 |
| 20260505013306 | 68 | 109 | 1.0 | 1.0 | 0.00 | 0.00 | 0.00 | 59 | 1006.0 |
| 20260505012805 | 67 | 109 | 0.0 | 1.0 | 0.00 | 0.00 | 0.00 | 59 | 1006.2 |
| 20260505012304 | 68 | 109 | 0.0 | 0.0 | 0.00 | 0.00 | 0.00 | 59 | 1006.0 |
| 20260505011757 | 68 | 109 | 0.0 | 0.0 | 0.00 | 0.00 | 0.00 | 58 | 1006.1 |
| 20260505011255 | 68 | 109 | 0.0 | 0.0 | 0.00 | 0.00 | 0.00 | 58 | 1006.0 |
| 20260505010750 | 68 | 110 | 0.0 | 0.0 | 0.00 | 0.00 | 0.00 | 57 | 1006.3 |
| 20260505010247 | 68 | 111 | 0.0 | 0.0 | 0.00 | 0.00 | 0.00 | 57 | 1006.1 |
| 20260505005743 | 69 | 112 | 0.0 | 0.0 | 0.00 | 0.00 | 0.00 | 57 | 1006.1 |
| 20260505005240 | 69 | 111 | 0.0 | 0.0 | 0.00 | 0.00 | 0.00 | 57 | 1006.1 |
| 20260505004737 | 69 | 113 | 0.0 | 0.0 | 0.00 | 0.00 | 0.00 | 56 | 1006.1 |
| 20260505004233 | 69 | 106 | 0.0 | 0.0 | 0.00 | 0.00 | 0.00 | 56 | 1006.1 |
| 20260505003731 | 69 | 113 | 0.0 | 0.0 | 0.00 | 0.00 | 0.00 | 55 | 1006.1 |
| 20260505003229 | 70 | 113 | 0.0 | 1.0 | 0.00 | 0.00 | 0.00 | 55 | 1005.9 |
| 20260505002725 | 70 | 102 | 0.0 | 0.0 | 0.00 | 0.00 | 0.00 | 54 | 1005.8 |
| 20260505002222 | 70 | 111 | 0.0 | 1.0 | 0.00 | 0.00 | 0.00 | 54 | 1005.9 |
| 20260505001720 | 70 | 101 | 0.0 | 1.0 | 0.00 | 0.00 | 0.00 | 54 | 1006.0 |
| 20260505001217 | 71 | 119 | 1.0 | 2.0 | 0.00 | 0.00 | 0.00 | 53 | 1006.1 |
| 20260505000714 | 71 | 94 | 0.0 | 0.0 | 0.00 | 0.00 | 0.00 | 52 | 1006.1 |
| 20260505000212 | 71 | 110 | 1.0 | 1.0 | 0.00 | 0.00 | 0.00 | 52 | 1006.0 |
| 20260504235708 | 72 | 119 | 0.0 | 1.0 | 0.00 | 0.00 | 0.00 | 52 | 1006.4 |
| 20260504235204 | 72 | 115 | 2.0 | 2.0 | 0.00 | 0.00 | 0.00 | 52 | 1006.3 |
| 20260504234702 | 72 | 114 | 0.0 | 0.0 | 0.00 | 0.00 | 0.00 | 52 | 1006.3 |
| 20260504234159 | 72 | 112 | 1.0 | 1.0 | 0.00 | 0.00 | 0.00 | 52 | 1006.5 |
| 20260504233654 | 72 | 131 | 2.0 | 2.0 | 0.00 | 0.00 | 0.00 | 51 | 1006.5 |
| 20260504233150 | 72 | 244 | 4.0 | 5.0 | 0.00 | 0.00 | 0.00 | 49 | 1006.7 |
| 20260504232648 | 72 | 327 | 4.0 | 5.0 | 0.00 | 0.00 | 0.00 | 49 | 1006.7 |
| 20260504232145 | 73 | 110 | 1.0 | 1.0 | 0.00 | 0.00 | 0.00 | 50 | 1006.7 |
| 20260504231642 | 73 | 78 | 1.0 | 1.0 | 0.00 | 0.00 | 0.00 | 48 | 1006.5 |
| 20260504231138 | 74 | 294 | 3.0 | 5.0 | 0.00 | 0.00 | 0.00 | 45 | 1007.0 |
| 20260504230634 | 74 | 242 | 3.0 | 3.0 | 0.00 | 0.00 | 0.00 | 45 | 1006.7 |
| 20260504230133 | 75 | 264 | 2.0 | 5.0 | 0.00 | 0.00 | 0.00 | 45 | 1006.7 |
| 20260504225631 | 75 | 2 | 5.0 | 6.0 | 0.00 | 0.00 | 0.00 | 45 | 1006.7 |
| 20260504225127 | 75 | 290 | 10.0 | 17.0 | 0.00 | 0.00 | 0.00 | 42 | 1007.2 |
| 20260504224624 | 75 | 234 | 4.0 | 5.0 | 0.00 | 0.00 | 0.00 | 44 | 1006.9 |
| 20260504224121 | 75 | 287 | 4.0 | 5.0 | 0.00 | 0.00 | 0.00 | 44 | 1006.9 |
| 20260504223618 | 75 | 1 | 4.0 | 5.0 | 0.00 | 0.00 | 0.00 | 44 | 1006.9 |
| 20260504223114 | 75 | 141 | 2.0 | 3.0 | 0.00 | 0.00 | 0.00 | 46 | 1006.8 |
| 20260504222611 | 75 | 297 | 2.0 | 3.0 | 0.00 | 0.00 | 0.00 | 47 | 1006.9 |
| 20260504222108 | 75 | 271 | 6.0 | 7.0 | 0.00 | 0.00 | 0.00 | 47 | 1006.9 |
| 20260504221605 | 75 | 130 | 0.0 | 1.0 | 0.00 | 0.00 | 0.00 | 53 | 1007.0 |
| 20260504221102 | 75 | 114 | 1.0 | 1.0 | 0.00 | 0.00 | 0.00 | 53 | 1007.0 |
| 20260504220558 | 76 | 122 | 0.0 | 1.0 | 0.00 | 0.00 | 0.00 | 49 | 1006.8 |
| 20260504220055 | 76 | 107 | 0.0 | 1.0 | 0.00 | 0.00 | 0.00 | 49 | 1006.8 |
| 20260504215552 | 75 | 88 | 0.0 | 0.0 | 0.00 | 0.00 | 0.00 | 52 | 1007.0 |
| 20260504215049 | 75 | 88 | 0.0 | 0.0 | 0.00 | 0.00 | 0.00 | 52 | 1007.3 |
| 20260504214545 | 75 | 88 | 0.0 | 0.0 | 0.00 | 0.00 | 0.00 | 52 | 1007.4 |
| 20260504214042 | 75 | 88 | 0.0 | 0.0 | 0.00 | 0.00 | 0.00 | 49 | 1007.6 |
| 20260504213538 | 75 | 101 | 0.0 | 0.0 | 0.00 | 0.00 | 0.00 | 52 | 1007.6 |
| 20260504213035 | 76 | 114 | 1.0 | 1.0 | 0.00 | 0.00 | 0.00 | 50 | 1007.8 |
| 20260504212531 | 76 | 98 | 0.0 | 0.0 | 0.00 | 0.00 | 0.00 | 48 | 1007.8 |
| 20260504212029 | 77 | 66 | 2.0 | 2.0 | 0.00 | 0.00 | 0.00 | 45 | 1007.6 |
| 20260504211525 | 77 | 71 | 2.0 | 2.0 | 0.00 | 0.00 | 0.00 | 49 | 1007.9 |
| 20260504211022 | 76 | 50 | 1.0 | 2.0 | 0.00 | 0.00 | 0.00 | 44 | 1008.1 |
| 20260504210519 | 77 | 159 | 2.0 | 2.0 | 0.00 | 0.00 | 0.00 | 49 | 1007.8 |
| 20260504210016 | 76 | 275 | 3.0 | 3.0 | 0.00 | 0.00 | 0.00 | 47 | 1008.1 |
| 20260504205514 | 76 | 294 | 4.0 | 5.0 | 0.00 | 0.00 | 0.00 | 46 | 1008.1 |
| 20260504205012 | 76 | 138 | 2.0 | 2.0 | 0.00 | 0.00 | 0.00 | 48 | 1007.9 |
| 20260504204510 | 75 | 9 | 2.0 | 3.0 | 0.00 | 0.00 | 0.00 | 47 | 1008.2 |
| 20260504204008 | 75 | 109 | 0.0 | 1.0 | 0.00 | 0.00 | 0.00 | 52 | 1008.2 |
| 20260504203506 | 77 | 65 | 1.0 | 2.0 | 0.00 | 0.00 | 0.00 | 49 | 1008.1 |
| 20260504203003 | 77 | 111 | 1.0 | 1.0 | 0.00 | 0.00 | 0.00 | 48 | 1008.3 |
| 20260504202458 | 77 | 118 | 1.0 | 1.0 | 0.00 | 0.00 | 0.00 | 56 | 1008.3 |
| 20260504201955 | 75 | 280 | 3.0 | 3.0 | 0.00 | 0.00 | 0.00 | 53 | 1008.7 |
| 20260504201453 | 74 | 350 | 1.0 | 1.0 | 0.00 | 0.00 | 0.00 | 55 | 1008.5 |
| 20260504200950 | 73 | 31 | 2.0 | 3.0 | 0.00 | 0.00 | 0.00 | 51 | 1008.7 |
| 20260504200447 | 74 | 23 | 3.0 | 3.0 | 0.00 | 0.00 | 0.00 | 52 | 1008.7 |
| 20260504195943 | 74 | 253 | 3.0 | 3.0 | 0.00 | 0.00 | 0.00 | 53 | 1008.6 |
| 20260504195439 | 75 | 139 | 3.0 | 3.0 | 0.00 | 0.00 | 0.00 | 51 | 1008.7 |
| 20260504194936 | 74 | 154 | 2.0 | 2.0 | 0.00 | 0.00 | 0.00 | 52 | 1008.8 |
| 20260504194432 | 74 | 273 | 3.0 | 5.0 | 0.00 | 0.00 | 0.00 | 52 | 1008.8 |
| 20260504193928 | 74 | 100 | 1.0 | 1.0 | 0.00 | 0.00 | 0.00 | 57 | 1008.9 |
| 20260504193425 | 74 | 217 | 4.0 | 5.0 | 0.00 | 0.00 | 0.00 | 52 | 1009.0 |
| 20260504192924 | 74 | 47 | 2.0 | 2.0 | 0.00 | 0.00 | 0.00 | 52 | 1008.9 |
| 20260504192421 | 74 | 127 | 1.0 | 2.0 | 0.00 | 0.00 | 0.00 | 52 | 1009.3 |
| 20260504191920 | 74 | 300 | 3.0 | 3.0 | 0.00 | 0.00 | 0.00 | 54 | 1009.3 |
| 20260504191418 | 72 | 322 | 3.0 | 5.0 | 0.00 | 0.00 | 0.00 | 56 | 1009.2 |
| 20260504190913 | 72 | 127 | 1.0 | 2.0 | 0.00 | 0.00 | 0.00 | 57 | 1009.2 |
| 20260504190408 | 72 | 307 | 3.0 | 5.0 | 0.00 | 0.00 | 0.00 | 57 | 1009.1 |
| 20260504185905 | 73 | 270 | 3.0 | 5.0 | 0.00 | 0.00 | 0.00 | 55 | 1009.4 |
| 20260504185403 | 72 | 105 | 0.0 | 1.0 | 0.00 | 0.00 | 0.00 | 59 | 1009.5 |
| 20260504184858 | 70 | 144 | 2.0 | 2.0 | 0.00 | 0.00 | 0.00 | 59 | 1009.6 |
| 20260504184354 | 69 | 110 | 2.0 | 2.0 | 0.00 | 0.00 | 0.00 | 61 | 1009.5 |
| 20260504183850 | 69 | 296 | 4.0 | 5.0 | 0.00 | 0.00 | 0.00 | 60 | 1009.7 |
| 20260504183348 | 69 | 74 | 2.0 | 2.0 | 0.00 | 0.00 | 0.00 | 60 | 1009.6 |
| 20260504182845 | 69 | 305 | 3.0 | 5.0 | 0.00 | 0.00 | 0.00 | 58 | 1009.5 |
| 20260504182343 | 69 | 3 | 6.0 | 7.0 | 0.00 | 0.00 | 0.00 | 60 | 1009.4 |
| 20260504181839 | 70 | 100 | 1.0 | 1.0 | 0.00 | 0.00 | 0.00 | 61 | 1009.7 |
| 20260504181337 | 70 | 300 | 6.0 | 10.0 | 0.00 | 0.00 | 0.00 | 57 | 1009.5 |
| 20260504180836 | 69 | 217 | 1.0 | 3.0 | 0.00 | 0.00 | 0.00 | 60 | 1009.6 |
| 20260504180334 | 69 | 293 | 2.0 | 3.0 | 0.00 | 0.00 | 0.00 | 59 | 1009.2 |
| 20260504175832 | 69 | 55 | 2.0 | 3.0 | 0.00 | 0.00 | 0.00 | 58 | 1009.2 |
| 20260504175328 | 69 | 289 | 3.0 | 3.0 | 0.00 | 0.00 | 0.00 | 60 | 1009.4 |
| 20260504174826 | 70 | 113 | 2.0 | 3.0 | 0.00 | 0.00 | 0.00 | 58 | 1009.0 |
| 20260504174324 | 71 | 107 | 4.0 | 6.0 | 0.00 | 0.00 | 0.00 | 56 | 1009.1 |
| 20260504173820 | 71 | 136 | 1.0 | 2.0 | 0.00 | 0.00 | 0.00 | 58 | 1009.1 |
| 20260504173317 | 73 | 81 | 1.0 | 1.0 | 0.00 | 0.00 | 0.00 | 57 | 1009.1 |
| 20260504172814 | 72 | 104 | 1.0 | 1.0 | 0.00 | 0.00 | 0.00 | 57 | 1008.8 |
| 20260504172311 | 72 | 180 | 2.0 | 2.0 | 0.00 | 0.00 | 0.00 | 56 | 1008.9 |
| 20260504171807 | 72 | 133 | 1.0 | 2.0 | 0.00 | 0.00 | 0.00 | 57 | 1009.1 |
| 20260504171304 | 70 | 8 | 3.0 | 3.0 | 0.00 | 0.00 | 0.00 | 57 | 1009.0 |
| 20260504170801 | 69 | 171 | 2.0 | 2.0 | 0.00 | 0.00 | 0.00 | 59 | 1009.1 |
| 20260504170258 | 69 | 261 | 4.0 | 5.0 | 0.00 | 0.00 | 0.00 | 58 | 1008.9 |
| 20260504160216 | 67 | 272 | 0.0 | 0.0 | 0.00 | 0.00 | 0.00 | 61 | 1009.6 |
| 20260504151144 | 66 | 112 | 1.0 | 1.0 | 0.00 | 0.00 | 0.00 | 61 | 1009.8 |
| 20260504150641 | 65 | 133 | 1.0 | 1.0 | 0.00 | 0.00 | 0.00 | 63 | 1009.9 |
| 20260504150138 | 65 | 119 | 0.0 | 0.0 | 0.00 | 0.00 | 0.00 | 62 | 1009.8 |
| 20260504141107 | 62 | 45 | 3.0 | 5.0 | 0.00 | 0.00 | 0.00 | 64 | 1009.3 |
| 20260504140604 | 62 | 291 | 4.0 | 5.0 | 0.00 | 0.00 | 0.00 | 61 | 1009.6 |
| 20260504130528 | 57 | 116 | 0.0 | 1.0 | 0.00 | 0.00 | 0.00 | 68 | 1010.4 |
| 20260504110415 | 54 | 101 | 0.0 | 0.0 | 0.00 | 0.00 | 0.00 | 65 | 1009.9 |
| 20260504100332 | 52 | 100 | 0.0 | 0.0 | 0.00 | 0.00 | 0.00 | 66 | 1010.2 |